Location: Cz?stochówka
(50.8142°N, 19.0915°E)
Time: 06:48:37
(UTC+00:00)

Meteor 1-21 - Pass Details

Date: 13 January 2026
Orbit: 845 x 885 km, 81.2° (Epoch: 10 February)

Event Time Altitude Azimuth Distance (km) Brightness Sun altitude
Exits shadow 04:34:05 26° 321° (NW) 1,635 5.3 -19.3°
Maximum altitude 04:36:47 43° 267° (W) 1,186 4.5 -18.9°
Drops below altitude 10° 04:42:05 10° 198° (SSW) 2,492 6.6 -18.0°
Sets 04:44:37 0° 191° (SSW) 3,431 7.4 -17.7°
